Location: Leipzig
(51.3392°N, 12.3528°E)
Time: 04:29:54
(UTC+01:00)

ISS - Pass Details

Date: 13 January 2018
Orbit: 401 x 406 km, 51.6° (Epoch: 17 January)

Event Time Altitude Azimuth Distance (km) Brightness Sun altitude
Exits shadow 05:34:43 26° 152° (SSE) 844 -1.9 -23.5°
Drops below altitude 10° 05:36:26 10° 134° (SE) 1,461 -0.3 -23.2°
Sets 05:38:35 0° 127° (SE) 2,319 1.0 -22.9°
